GFSWCAN_prec_precacc_198.txt.gz
Total_Precipitation_Accumulation
1.58 1.40 1.43 1.55 1.33 1.10 0.95 1.16 1.42 1.21 1.04 0.60 0.62 0.43 0.29 0.26 0.41 0.36 0.31 0.51 0.48 0.30 0.06 0.03 0.06 0.13 0.14 0.43 1.05 0.83 0.57 0.48 0.48 0.54 0.30 0.07 0.01 0.01 0.01 0.00 0.00 0.05 0.10 0.12 0.11 0.12 0.02 0.00 0.01 0.04 0.04 0.00 0.00 0.00
1.65 1.60 1.48 1.64 1.65 1.65 1.54 1.23 1.09 0.88 0.67 0.43 0.49 0.37 0.30 0.31 0.50 0.53 0.28 0.32 0.50 0.39 0.10 0.04 0.04 0.06 0.10 0.26 0.71 0.82 0.58 0.46 0.30 0.33 0.15 0.06 0.02 0.01 0.00 0.02 0.00 0.01 0.00 0.01 0.01 0.02 0.00 0.00 0.01 0.00 0.00 0.00 0.00 0.00
1.42 1.60 1.53 1.39 1.32 1.15 1.22 1.50 1.70 1.21 0.72 0.47 0.44 0.39 0.34 0.33 0.55 0.71 0.34 0.33 0.48 0.43 0.14 0.05 0.03 0.02 0.02 0.12 0.30 0.78 0.69 0.57 0.43 0.17 0.22 0.11 0.07 0.02 0.02 0.01 0.00 0.00 0.00 0.01 0.00 0.00 0.00 0.00 0.00 0.00 0.01 0.04 0.01 0.00
1.41 1.55 1.51 1.28 1.25 1.10 0.76 0.63 0.87 1.18 0.62 0.46 0.46 0.44 0.35 0.34 0.53 0.73 0.33 0.39 0.52 0.51 0.28 0.05 0.02 0.04 0.04 0.15 0.29 0.51 0.73 0.52 0.46 0.27 0.43 0.34 0.17 0.03 0.02 0.01 0.00 0.00 0.01 0.01 0.02 0.00 0.00 0.00 0.00 0.00 0.07 0.06 0.00 0.00
1.20 1.37 1.34 1.10 0.91 1.03 1.12 0.78 0.47 0.61 0.70 0.50 0.49 0.44 0.34 0.40 0.62 0.54 0.21 0.45 0.43 0.68 0.73 0.14 0.04 0.04 0.02 0.16 0.34 0.51 0.77 0.58 0.51 0.50 0.41 0.30 0.21 0.14 0.06 0.02 0.01 0.02 0.03 0.02 0.06 0.01 0.05 0.08 0.05 0.06 0.05 0.03 0.02 0.00
1.39 1.16 1.29 1.15 1.06 0.79 0.70 0.70 0.69 0.53 0.49 0.48 0.49 0.46 0.42 0.59 1.09 0.75 0.59 0.47 0.49 0.58 1.42 0.49 0.05 0.03 0.02 0.21 0.45 0.53 0.55 0.52 0.58 0.62 0.43 0.22 0.14 0.25 0.44 0.12 0.01 0.00 0.01 0.05 0.09 0.03 0.04 0.05 0.02 0.01 0.03 0.04 0.05 0.07
2.52 1.84 1.44 1.23 1.06 0.90 0.72 0.67 0.87 0.78 0.71 0.72 0.73 0.75 0.73 1.02 0.97 0.80 0.42 0.61 0.71 1.04 1.40 0.59 0.19 0.07 0.06 0.26 0.53 0.66 0.45 0.51 0.74 0.85 0.54 0.24 0.22 0.53 0.78 0.31 0.05 0.00 0.01 0.01 0.01 0.01 0.04 0.04 0.12 0.16 0.23 0.33 0.35 0.32
2.63 2.78 2.69 1.90 1.34 1.19 0.95 0.88 0.96 1.12 1.02 1.17 1.28 1.32 1.48 1.67 1.44 0.71 0.17 0.47 0.91 1.65 1.74 1.18 0.31 0.12 0.16 0.54 0.67 0.64 0.65 0.57 0.75 0.65 0.43 0.24 0.26 0.59 0.81 0.17 0.01 0.00 0.00 0.03 0.06 0.10 0.23 0.29 0.30 0.30 0.24 0.21 0.17 0.10
2.41 2.33 2.92 3.10 2.51 2.02 1.64 1.30 1.25 1.54 1.56 1.79 1.97 1.99 2.07 1.43 0.61 0.35 0.43 0.96 0.98 1.69 2.23 1.24 0.39 0.30 0.23 0.58 0.59 0.73 0.68 0.82 0.61 0.45 0.28 0.44 0.43 0.54 0.26 0.09 0.07 0.07 0.10 0.23 0.29 0.25 0.21 0.16 0.12 0.12 0.14 0.11 0.05 0.03
2.23 2.76 2.79 2.90 3.33 3.01 2.71 2.15 2.02 2.15 2.33 2.66 2.34 1.87 1.53 0.78 0.76 1.05 1.51 2.00 2.66 2.00 1.58 0.97 0.18 0.34 0.29 0.49 0.60 0.90 1.16 1.03 0.92 0.43 0.45 0.80 0.58 0.34 0.22 0.13 0.16 0.24 0.29 0.26 0.18 0.10 0.06 0.08 0.10 0.08 0.04 0.02 0.01 0.01
1.82 2.19 2.88 3.12 3.28 3.69 3.83 3.39 3.24 3.37 3.79 3.00 2.45 1.80 1.56 1.57 1.72 1.97 2.00 1.79 1.35 1.36 0.75 0.34 0.20 0.39 0.33 0.69 0.93 0.94 1.53 1.03 1.01 0.45 0.76 0.78 0.57 0.25 0.17 0.17 0.21 0.21 0.15 0.07 0.04 0.03 0.03 0.03 0.02 0.01 0.01 0.01 0.01 0.00
1.66 1.88 2.28 2.88 3.23 3.51 4.66 4.98 4.85 4.57 3.40 2.00 1.76 2.24 2.44 2.39 2.38 1.91 1.48 0.95 0.97 0.49 0.51 0.52 0.37 0.35 0.37 0.55 1.14 1.64 1.39 1.42 0.91 0.56 1.05 0.68 0.33 0.17 0.15 0.20 0.18 0.08 0.03 0.03 0.03 0.03 0.02 0.01 0.01 0.00 0.01 0.00 0.00 0.00
1.57 1.77 2.09 2.35 2.88 3.59 4.60 6.40 6.79 5.53 3.56 3.13 4.27 4.40 3.11 2.56 1.88 1.27 0.76 0.84 0.77 0.57 0.64 0.68 0.62 0.52 0.73 1.03 1.66 1.83 1.71 1.08 0.60 0.85 0.63 0.32 0.24 0.18 0.10 0.07 0.06 0.08 0.04 0.03 0.03 0.02 0.02 0.02 0.03 0.04 0.04 0.02 0.01 0.01
1.45 1.63 2.01 2.12 2.51 3.59 4.83 5.99 7.50 6.68 4.83 5.73 5.59 4.53 2.15 1.46 0.43 0.46 0.42 0.41 0.47 0.58 0.65 0.72 0.87 0.88 0.96 1.57 1.63 1.51 1.24 1.16 1.03 0.60 0.38 0.32 0.19 0.13 0.14 0.14 0.11 0.16 0.27 0.26 0.17 0.10 0.08 0.07 0.08 0.08 0.08 0.07 0.04 0.03
1.52 1.79 2.10 2.25 2.43 3.16 4.14 5.28 5.98 5.11 5.74 5.96 4.37 2.27 0.83 0.16 0.12 0.30 0.27 0.25 0.33 0.40 0.47 0.69 0.87 0.87 1.04 1.44 1.09 0.94 1.10 0.75 0.39 0.29 0.39 0.25 0.18 0.16 0.19 0.22 0.23 0.24 0.35 0.47 0.50 0.46 0.43 0.36 0.33 0.26 0.16 0.12 0.12 0.07
2.23 3.09 2.71 2.19 2.47 3.14 3.90 5.71 6.83 6.73 7.73 5.47 3.50 1.25 0.27 0.08 0.08 0.15 0.21 0.28 0.37 0.50 0.60 0.80 1.00 1.28 1.16 1.02 1.04 0.72 0.65 0.41 0.35 0.40 0.40 0.30 0.31 0.31 0.29 0.22 0.18 0.14 0.11 0.12 0.12 0.14 0.16 0.17 0.22 0.24 0.22 0.19 0.21 0.20
3.62 3.71 2.28 1.95 2.55 3.37 4.75 6.92 8.79 9.63 7.67 5.18 1.83 0.27 0.04 0.03 0.07 0.13 0.21 0.25 0.27 0.51 0.71 1.03 1.48 1.02 1.09 1.26 0.80 0.60 0.63 0.46 0.25 0.14 0.24 0.25 0.33 0.38 0.41 0.30 0.27 0.20 0.14 0.09 0.07 0.07 0.06 0.06 0.07 0.07 0.06 0.08 0.12 0.23
3.63 2.58 2.00 2.29 3.32 4.81 6.01 7.03 7.56 7.02 5.44 2.46 0.50 0.10 0.03 0.03 0.04 0.06 0.12 0.16 0.28 0.40 0.53 0.90 1.00 1.32 1.09 0.87 0.68 0.52 0.35 0.17 0.10 0.09 0.16 0.20 0.32 0.42 0.35 0.23 0.20 0.16 0.14 0.17 0.19 0.16 0.14 0.12 0.09 0.06 0.05 0.05 0.06 0.06
2.64 2.08 2.00 2.83 3.93 5.51 6.73 6.75 5.24 4.21 2.10 0.64 0.14 0.10 0.07 0.03 0.03 0.02 0.06 0.13 0.22 0.37 0.90 1.41 1.65 1.07 0.30 0.27 0.16 0.09 0.06 0.04 0.03 0.04 0.11 0.19 0.32 0.40 0.38 0.29 0.18 0.14 0.15 0.18 0.18 0.19 0.19 0.16 0.12 0.10 0.10 0.11 0.11 0.09
2.94 2.62 2.48 3.23 3.82 5.42 6.03 5.57 3.98 2.15 1.02 0.47 0.21 0.17 0.18 0.16 0.13 0.11 0.11 0.24 0.61 1.24 1.86 1.58 0.56 0.08 0.02 0.04 0.02 0.01 0.01 0.01 0.00 0.01 0.05 0.12 0.16 0.22 0.26 0.24 0.19 0.17 0.18 0.21 0.22 0.24 0.22 0.20 0.18 0.17 0.16 0.17 0.16 0.14
3.91 3.41 3.98 5.32 6.20 5.81 5.17 3.52 2.46 1.51 0.81 0.51 0.51 0.31 0.41 0.43 0.42 0.48 0.62 0.80 1.62 2.03 1.03 0.24 0.03 0.01 0.01 0.03 0.03 0.02 0.00 0.01 0.02 0.02 0.03 0.03 0.05 0.12 0.19 0.21 0.22 0.26 0.27 0.28 0.27 0.24 0.26 0.25 0.18 0.17 0.23 0.24 0.20 0.20
4.93 4.49 6.25 6.07 6.84 6.57 5.10 2.77 1.60 1.04 0.66 0.75 0.68 0.58 0.69 0.71 0.71 0.77 0.92 1.60 1.54 0.72 0.17 0.03 0.02 0.04 0.04 0.03 0.02 0.02 0.01 0.01 0.01 0.01 0.01 0.02 0.04 0.06 0.07 0.08 0.14 0.25 0.31 0.33 0.32 0.33 0.30 0.28 0.28 0.31 0.31 0.29 0.25 0.21
4.44 3.91 5.01 5.15 4.89 4.38 3.51 1.94 1.48 1.18 0.98 1.02 0.86 0.82 0.92 0.78 0.82 0.94 1.31 0.97 0.51 0.24 0.13 0.12 0.11 0.10 0.07 0.03 0.03 0.02 0.02 0.02 0.03 0.03 0.02 0.02 0.03 0.04 0.05 0.07 0.07 0.12 0.21 0.26 0.26 0.33 0.34 0.31 0.34 0.35 0.29 0.22 0.17 0.18
4.18 5.31 5.28 4.92 3.68 2.78 2.20 1.75 1.21 0.83 0.91 0.85 0.92 0.85 0.73 0.73 0.95 1.13 0.77 0.29 0.30 0.35 0.24 0.25 0.23 0.18 0.13 0.11 0.08 0.08 0.09 0.09 0.09 0.08 0.09 0.11 0.11 0.09 0.07 0.08 0.11 0.15 0.16 0.24 0.30 0.33 0.25 0.22 0.24 0.22 0.19 0.21 0.20 0.20
6.19 5.91 4.16 3.54 2.46 1.38 0.89 0.71 0.59 0.53 0.63 0.53 0.61 0.68 0.63 0.73 0.98 0.81 0.34 0.21 0.33 0.47 0.41 0.30 0.27 0.25 0.23 0.20 0.18 0.16 0.14 0.18 0.21 0.26 0.20 0.16 0.17 0.23 0.23 0.15 0.10 0.10 0.10 0.23 0.26 0.21 0.19 0.22 0.27 0.23 0.22 0.25 0.34 0.41
4.97 2.81 2.10 1.21 0.70 0.30 0.27 0.34 0.36 0.37 0.45 0.58 0.62 0.55 0.58 0.70 0.77 0.53 0.17 0.21 0.32 0.42 0.45 0.37 0.32 0.29 0.28 0.28 0.27 0.30 0.30 0.33 0.41 0.46 0.30 0.23 0.26 0.40 0.40 0.31 0.22 0.13 0.07 0.16 0.31 0.37 0.34 0.30 0.33 0.32 0.34 0.32 0.43 0.57
2.75 1.44 0.81 0.27 0.13 0.10 0.17 0.25 0.28 0.37 0.51 0.50 0.46 0.43 0.56 0.86 0.52 0.16 0.13 0.22 0.34 0.41 0.47 0.50 0.44 0.40 0.36 0.35 0.36 0.42 0.45 0.50 0.57 0.53 0.40 0.37 0.32 0.31 0.41 0.48 0.38 0.21 0.26 0.34 0.33 0.39 0.48 0.42 0.38 0.35 0.36 0.34 0.37 0.48
0.89 0.33 0.37 0.31 0.21 0.15 0.20 0.31 0.39 0.35 0.26 0.17 0.19 0.26 0.32 0.23 0.08 0.08 0.14 0.25 0.41 0.52 0.59 0.59 0.54 0.49 0.47 0.48 0.51 0.56 0.59 0.59 0.57 0.56 0.54 0.52 0.47 0.39 0.38 0.42 0.47 0.53 0.58 0.52 0.49 0.55 0.54 0.50 0.46 0.44 0.45 0.44 0.37 0.36
0.36 0.24 0.16 0.22 0.24 0.30 0.32 0.29 0.23 0.15 0.09 0.07 0.10 0.11 0.09 0.05 0.10 0.17 0.28 0.38 0.52 0.59 0.60 0.58 0.58 0.52 0.52 0.55 0.56 0.60 0.64 0.68 0.67 0.61 0.45 0.37 0.37 0.42 0.45 0.50 0.57 0.60 0.58 0.55 0.48 0.46 0.54 0.65 0.78 0.86 0.78 0.66 0.54 0.51
0.33 0.25 0.26 0.25 0.21 0.19 0.13 0.13 0.13 0.13 0.09 0.09 0.11 0.13 0.11 0.16 0.26 0.35 0.44 0.51 0.52 0.49 0.54 0.57 0.55 0.51 0.50 0.49 0.53 0.55 0.58 0.61 0.69 0.77 0.80 0.60 0.47 0.51 0.57 0.59 0.60 0.59 0.60 0.58 0.58 0.61 0.62 0.69 0.70 0.69 0.71 0.72 0.71 0.70
0.29 0.28 0.31 0.25 0.22 0.19 0.22 0.28 0.35 0.31 0.30 0.30 0.27 0.21 0.19 0.25 0.37 0.44 0.45 0.47 0.46 0.46 0.52 0.60 0.60 0.58 0.56 0.59 0.58 0.59 0.55 0.50 0.53 0.60 0.68 0.77 0.76 0.72 0.69 0.69 0.69 0.72 0.71 0.69 0.66 0.63 0.62 0.60 0.56 0.57 0.59 0.58 0.55 0.56
0.39 0.41 0.31 0.31 0.32 0.36 0.44 0.43 0.41 0.40 0.44 0.43 0.38 0.35 0.36 0.42 0.53 0.50 0.40 0.43 0.45 0.48 0.52 0.54 0.55 0.56 0.58 0.60 0.60 0.63 0.67 0.65 0.65 0.73 0.81 0.83 0.81 0.74 0.76 0.79 0.77 0.80 0.82 0.81 0.81 0.82 0.78 0.79 0.77 0.75 0.70 0.64 0.61 0.56
0.56 0.56 0.52 0.49 0.46 0.45 0.41 0.43 0.43 0.40 0.36 0.33 0.35 0.33 0.33 0.36 0.37 0.32 0.32 0.41 0.45 0.50 0.51 0.52 0.55 0.56 0.57 0.57 0.57 0.57 0.60 0.66 0.72 0.81 0.87 0.88 0.88 0.90 0.95 0.86 0.81 0.85 0.88 0.90 0.93 0.94 0.93 0.90 0.82 0.76 0.74 0.70 0.64 0.60

GFSWCAN_prec_precacc_201.txt.gz
Total_Precipitation_Accumulation
1.65 1.45 1.47 1.56 1.34 1.11 0.96 1.17 1.42 1.21 1.04 0.60 0.62 0.43 0.29 0.26 0.41 0.36 0.31 0.51 0.48 0.30 0.06 0.03 0.06 0.13 0.14 0.43 1.05 0.83 0.57 0.48 0.48 0.54 0.30 0.07 0.01 0.01 0.01 0.00 0.00 0.05 0.10 0.12 0.11 0.12 0.02 0.00 0.01 0.04 0.04 0.00 0.00 0.00
1.66 1.60 1.49 1.65 1.66 1.65 1.54 1.23 1.09 0.88 0.67 0.43 0.49 0.37 0.30 0.31 0.50 0.53 0.28 0.32 0.50 0.39 0.10 0.04 0.04 0.06 0.10 0.26 0.71 0.82 0.58 0.46 0.30 0.33 0.15 0.06 0.02 0.01 0.00 0.02 0.00 0.01 0.00 0.01 0.01 0.02 0.00 0.00 0.01 0.00 0.00 0.00 0.00 0.00
1.43 1.60 1.53 1.39 1.32 1.15 1.22 1.50 1.70 1.21 0.72 0.47 0.44 0.39 0.34 0.33 0.55 0.71 0.34 0.33 0.49 0.45 0.14 0.05 0.03 0.02 0.02 0.12 0.30 0.78 0.69 0.57 0.43 0.17 0.23 0.12 0.08 0.02 0.02 0.01 0.00 0.00 0.00 0.01 0.01 0.00 0.00 0.00 0.00 0.00 0.01 0.04 0.01 0.00
1.41 1.55 1.51 1.28 1.25 1.10 0.76 0.63 0.87 1.18 0.62 0.46 0.46 0.44 0.35 0.34 0.53 0.73 0.33 0.39 0.52 0.54 0.30 0.05 0.02 0.04 0.04 0.15 0.29 0.51 0.73 0.52 0.46 0.27 0.45 0.39 0.20 0.03 0.02 0.01 0.00 0.00 0.01 0.01 0.03 0.00 0.00 0.00 0.00 0.00 0.07 0.06 0.00 0.00
1.21 1.38 1.35 1.10 0.91 1.03 1.12 0.78 0.47 0.61 0.70 0.50 0.49 0.44 0.34 0.40 0.62 0.54 0.21 0.46 0.43 0.68 0.75 0.14 0.04 0.04 0.02 0.16 0.34 0.51 0.77 0.58 0.51 0.51 0.45 0.33 0.22 0.15 0.08 0.03 0.02 0.02 0.04 0.03 0.07 0.04 0.08 0.12 0.05 0.06 0.05 0.03 0.02 0.00
1.39 1.17 1.30 1.16 1.07 0.80 0.70 0.70 0.69 0.53 0.49 0.48 0.49 0.46 0.42 0.59 1.09 0.75 0.59 0.48 0.49 0.58 1.42 0.49 0.05 0.03 0.02 0.21 0.45 0.53 0.55 0.52 0.59 0.63 0.46 0.26 0.17 0.29 0.48 0.14 0.03 0.00 0.02 0.05 0.09 0.03 0.05 0.07 0.02 0.01 0.03 0.04 0.05 0.07
2.53 1.85 1.45 1.24 1.07 0.91 0.73 0.67 0.88 0.78 0.71 0.72 0.73 0.75 0.73 1.02 0.97 0.80 0.42 0.62 0.71 1.04 1.41 0.59 0.19 0.07 0.06 0.26 0.53 0.66 0.45 0.51 0.76 0.87 0.57 0.25 0.24 0.59 0.86 0.35 0.07 0.00 0.01 0.01 0.01 0.01 0.04 0.04 0.12 0.16 0.23 0.33 0.35 0.32
2.63 2.79 2.70 1.90 1.34 1.19 0.95 0.89 0.97 1.12 1.02 1.17 1.28 1.32 1.48 1.67 1.44 0.71 0.17 0.47 0.91 1.65 1.74 1.18 0.31 0.12 0.16 0.54 0.68 0.64 0.65 0.57 0.75 0.66 0.44 0.25 0.28 0.62 0.86 0.18 0.01 0.00 0.00 0.03 0.06 0.10 0.23 0.29 0.30 0.30 0.24 0.21 0.17 0.10
2.41 2.33 2.93 3.11 2.52 2.03 1.64 1.30 1.25 1.54 1.56 1.79 1.97 1.99 2.07 1.43 0.61 0.35 0.43 0.96 0.98 1.70 2.24 1.26 0.39 0.30 0.23 0.58 0.59 0.73 0.68 0.82 0.61 0.45 0.28 0.45 0.44 0.56 0.27 0.09 0.07 0.07 0.10 0.23 0.29 0.25 0.21 0.16 0.12 0.12 0.14 0.11 0.05 0.03
2.24 2.76 2.80 2.90 3.34 3.01 2.71 2.16 2.03 2.15 2.33 2.66 2.34 1.87 1.53 0.78 0.76 1.05 1.51 2.00 2.67 2.01 1.60 1.00 0.19 0.34 0.29 0.49 0.61 0.90 1.16 1.03 0.92 0.43 0.46 0.81 0.58 0.34 0.22 0.13 0.16 0.24 0.29 0.26 0.18 0.10 0.06 0.08 0.10 0.08 0.04 0.02 0.01 0.01
1.83 2.20 2.88 3.12 3.29 3.70 3.85 3.40 3.26 3.37 3.79 3.00 2.45 1.80 1.56 1.57 1.72 1.97 2.00 1.80 1.38 1.41 0.83 0.41 0.20 0.39 0.36 0.72 0.96 0.95 1.54 1.04 1.01 0.45 0.76 0.78 0.57 0.25 0.17 0.17 0.21 0.21 0.15 0.07 0.04 0.03 0.03 0.03 0.02 0.01 0.01 0.01 0.01 0.00
1.67 1.89 2.30 2.89 3.23 3.52 4.69 5.00 4.87 4.58 3.40 2.00 1.77 2.24 2.44 2.39 2.38 1.91 1.49 0.97 1.00 0.58 0.55 0.52 0.37 0.36 0.38 0.55 1.14 1.64 1.39 1.42 0.91 0.56 1.05 0.68 0.34 0.17 0.15 0.20 0.18 0.08 0.03 0.03 0.03 0.03 0.02 0.01 0.01 0.00 0.01 0.00 0.00 0.00
1.57 1.78 2.10 2.35 2.88 3.59 4.64 6.41 6.80 5.55 3.57 3.13 4.27 4.40 3.11 2.56 1.88 1.28 0.77 0.85 0.79 0.58 0.64 0.68 0.62 0.52 0.73 1.03 1.66 1.83 1.72 1.08 0.60 0.85 0.63 0.33 0.25 0.18 0.10 0.07 0.06 0.08 0.04 0.03 0.03 0.02 0.02 0.02 0.03 0.04 0.04 0.02 0.01 0.01
1.46 1.64 2.02 2.13 2.51 3.59 4.85 6.00 7.50 6.68 4.83 5.73 5.59 4.53 2.15 1.46 0.44 0.51 0.43 0.41 0.47 0.58 0.65 0.72 0.87 0.88 0.96 1.57 1.63 1.51 1.24 1.16 1.03 0.60 0.38 0.32 0.19 0.13 0.14 0.14 0.11 0.16 0.27 0.26 0.17 0.10 0.08 0.07 0.08 0.08 0.08 0.07 0.04 0.03
1.54 1.80 2.10 2.25 2.44 3.17 4.17 5.31 5.99 5.11 5.74 5.96 4.37 2.27 0.83 0.16 0.13 0.34 0.27 0.25 0.33 0.40 0.47 0.69 0.87 0.87 1.05 1.44 1.09 0.95 1.10 0.75 0.39 0.30 0.40 0.25 0.18 0.16 0.19 0.22 0.23 0.24 0.35 0.47 0.50 0.46 0.43 0.36 0.33 0.26 0.16 0.12 0.12 0.07
2.28 3.11 2.71 2.20 2.48 3.15 3.93 5.72 6.83 6.73 7.73 5.47 3.50 1.25 0.27 0.08 0.08 0.15 0.21 0.28 0.37 0.50 0.60 0.80 1.00 1.28 1.16 1.02 1.04 0.72 0.65 0.41 0.35 0.40 0.40 0.30 0.31 0.31 0.29 0.22 0.18 0.14 0.11 0.12 0.12 0.14 0.16 0.17 0.22 0.24 0.22 0.19 0.21 0.20
3.68 3.71 2.28 1.96 2.57 3.41 4.76 6.92 8.79 9.63 7.67 5.18 1.83 0.27 0.04 0.03 0.07 0.13 0.21 0.25 0.27 0.51 0.71 1.03 1.48 1.02 1.09 1.27 0.80 0.60 0.63 0.46 0.25 0.14 0.24 0.25 0.33 0.38 0.41 0.30 0.27 0.20 0.14 0.09 0.07 0.07 0.06 0.06 0.07 0.07 0.06 0.08 0.12 0.23
3.66 2.58 2.02 2.31 3.35 4.83 6.03 7.03 7.56 7.02 5.44 2.46 0.50 0.10 0.03 0.03 0.04 0.06 0.12 0.16 0.28 0.40 0.53 0.90 1.00 1.32 1.09 0.87 0.68 0.52 0.35 0.17 0.10 0.09 0.16 0.20 0.32 0.42 0.35 0.23 0.20 0.16 0.14 0.17 0.19 0.16 0.14 0.12 0.09 0.06 0.05 0.05 0.06 0.06
2.67 2.09 2.03 2.84 3.95 5.58 6.74 6.75 5.24 4.21 2.10 0.64 0.14 0.10 0.07 0.03 0.03 0.02 0.06 0.13 0.22 0.37 0.90 1.41 1.65 1.07 0.30 0.27 0.16 0.09 0.06 0.04 0.03 0.04 0.11 0.19 0.32 0.40 0.38 0.29 0.18 0.14 0.15 0.18 0.18 0.19 0.19 0.16 0.12 0.10 0.10 0.11 0.12 0.09
2.99 2.67 2.51 3.26 3.84 5.46 6.04 5.57 3.98 2.15 1.02 0.47 0.21 0.17 0.18 0.16 0.13 0.11 0.11 0.24 0.61 1.24 1.86 1.58 0.56 0.08 0.02 0.04 0.02 0.01 0.01 0.01 0.00 0.01 0.05 0.12 0.16 0.22 0.26 0.24 0.19 0.17 0.18 0.21 0.22 0.24 0.22 0.20 0.19 0.17 0.17 0.18 0.18 0.16
3.94 3.46 4.03 5.37 6.26 5.83 5.17 3.52 2.46 1.51 0.81 0.51 0.51 0.31 0.42 0.43 0.42 0.48 0.62 0.80 1.63 2.04 1.03 0.24 0.03 0.01 0.01 0.03 0.03 0.02 0.00 0.01 0.02 0.02 0.03 0.03 0.05 0.12 0.19 0.21 0.22 0.26 0.27 0.28 0.27 0.25 0.27 0.25 0.18 0.18 0.24 0.25 0.22 0.22
4.94 4.50 6.30 6.17 6.86 6.57 5.10 2.77 1.60 1.04 0.66 0.75 0.68 0.58 0.70 0.71 0.71 0.77 0.93 1.60 1.55 0.72 0.17 0.03 0.02 0.04 0.04 0.03 0.02 0.02 0.01 0.01 0.01 0.01 0.01 0.02 0.04 0.06 0.07 0.08 0.14 0.26 0.31 0.33 0.33 0.33 0.30 0.29 0.29 0.32 0.32 0.30 0.25 0.21
4.45 3.93 5.12 5.19 4.89 4.38 3.51 1.94 1.48 1.18 0.99 1.02 0.86 0.83 0.92 0.78 0.82 0.94 1.31 0.97 0.51 0.24 0.13 0.12 0.11 0.10 0.07 0.03 0.03 0.02 0.02 0.02 0.03 0.03 0.02 0.02 0.03 0.04 0.05 0.07 0.07 0.12 0.22 0.26 0.26 0.33 0.36 0.32 0.34 0.35 0.29 0.22 0.17 0.18
4.21 5.35 5.33 4.92 3.68 2.78 2.20 1.75 1.21 0.83 0.91 0.85 0.92 0.85 0.73 0.73 0.95 1.13 0.77 0.29 0.30 0.35 0.24 0.25 0.23 0.18 0.13 0.11 0.08 0.08 0.09 0.09 0.09 0.08 0.09 0.11 0.11 0.09 0.07 0.08 0.11 0.15 0.16 0.24 0.31 0.34 0.26 0.22 0.24 0.22 0.20 0.21 0.20 0.20
6.22 5.91 4.16 3.54 2.46 1.38 0.89 0.71 0.59 0.53 0.63 0.53 0.61 0.68 0.63 0.73 0.98 0.81 0.34 0.21 0.33 0.47 0.41 0.30 0.27 0.25 0.23 0.20 0.18 0.16 0.14 0.19 0.22 0.26 0.20 0.17 0.17 0.23 0.23 0.15 0.10 0.10 0.10 0.25 0.27 0.22 0.20 0.22 0.27 0.23 0.22 0.26 0.35 0.42
4.97 2.81 2.10 1.21 0.70 0.30 0.27 0.34 0.36 0.37 0.45 0.58 0.62 0.55 0.58 0.70 0.77 0.53 0.17 0.21 0.32 0.42 0.45 0.37 0.32 0.29 0.28 0.28 0.27 0.30 0.30 0.33 0.42 0.47 0.30 0.23 0.26 0.41 0.42 0.31 0.22 0.13 0.07 0.17 0.33 0.39 0.36 0.31 0.33 0.33 0.35 0.33 0.43 0.58
2.75 1.44 0.81 0.27 0.13 0.10 0.17 0.25 0.28 0.37 0.51 0.50 0.46 0.43 0.56 0.86 0.52 0.16 0.13 0.23 0.37 0.45 0.49 0.51 0.44 0.40 0.36 0.35 0.36 0.42 0.45 0.50 0.58 0.53 0.40 0.37 0.32 0.31 0.41 0.49 0.40 0.22 0.28 0.36 0.35 0.41 0.51 0.44 0.39 0.36 0.37 0.34 0.37 0.50
0.89 0.33 0.37 0.31 0.21 0.15 0.20 0.31 0.39 0.35 0.26 0.17 0.19 0.26 0.32 0.23 0.08 0.09 0.18 0.30 0.44 0.54 0.60 0.59 0.54 0.49 0.47 0.48 0.51 0.56 0.59 0.59 0.57 0.56 0.54 0.52 0.47 0.39 0.38 0.42 0.48 0.55 0.60 0.54 0.54 0.59 0.57 0.52 0.48 0.47 0.47 0.46 0.38 0.37
0.36 0.24 0.16 0.22 0.24 0.30 0.32 0.29 0.23 0.15 0.09 0.07 0.10 0.12 0.11 0.08 0.14 0.24 0.34 0.40 0.53 0.59 0.60 0.58 0.58 0.52 0.52 0.55 0.56 0.60 0.64 0.68 0.67 0.62 0.45 0.37 0.37 0.42 0.45 0.50 0.57 0.60 0.59 0.56 0.49 0.47 0.57 0.69 0.82 0.89 0.81 0.68 0.55 0.52
0.33 0.25 0.26 0.25 0.21 0.19 0.13 0.13 0.13 0.13 0.09 0.09 0.11 0.13 0.14 0.21 0.31 0.40 0.46 0.51 0.52 0.49 0.54 0.57 0.55 0.51 0.50 0.49 0.53 0.55 0.58 0.61 0.70 0.79 0.83 0.61 0.48 0.51 0.57 0.59 0.61 0.60 0.60 0.60 0.59 0.61 0.63 0.69 0.71 0.69 0.71 0.72 0.71 0.71
0.30 0.28 0.31 0.25 0.22 0.19 0.22 0.28 0.35 0.31 0.30 0.30 0.27 0.21 0.21 0.28 0.41 0.46 0.45 0.47 0.46 0.46 0.52 0.60 0.60 0.58 0.57 0.59 0.59 0.60 0.56 0.50 0.53 0.61 0.70 0.78 0.77 0.72 0.69 0.69 0.71 0.74 0.73 0.71 0.67 0.65 0.63 0.61 0.57 0.58 0.60 0.59 0.56 0.57
0.39 0.41 0.32 0.31 0.32 0.36 0.44 0.43 0.41 0.40 0.44 0.43 0.38 0.36 0.38 0.44 0.55 0.50 0.40 0.43 0.45 0.48 0.52 0.54 0.55 0.57 0.58 0.60 0.60 0.63 0.68 0.66 0.66 0.74 0.83 0.85 0.83 0.76 0.78 0.81 0.79 0.82 0.83 0.83 0.83 0.83 0.79 0.80 0.78 0.76 0.72 0.65 0.62 0.57
0.56 0.57 0.53 0.50 0.46 0.45 0.41 0.43 0.43 0.40 0.36 0.35 0.37 0.35 0.36 0.37 0.38 0.32 0.32 0.41 0.45 0.50 0.51 0.52 0.56 0.56 0.57 0.57 0.57 0.57 0.60 0.67 0.73 0.83 0.88 0.90 0.90 0.93 0.98 0.87 0.82 0.86 0.90 0.91 0.94 0.95 0.94 0.91 0.83 0.78 0.75 0.72 0.66 0.61

GFSWCAN_prec_precacc_207.txt.gz
Total_Precipitation_Accumulation
1.73 1.51 1.51 1.59 1.37 1.12 0.97 1.17 1.42 1.22 1.05 0.61 0.62 0.43 0.29 0.26 0.41 0.36 0.31 0.51 0.48 0.30 0.06 0.03 0.06 0.13 0.14 0.43 1.05 0.83 0.57 0.48 0.48 0.54 0.30 0.07 0.01 0.01 0.01 0.00 0.00 0.05 0.10 0.12 0.11 0.13 0.02 0.00 0.01 0.04 0.04 0.00 0.00 0.00
1.69 1.62 1.50 1.66 1.67 1.66 1.54 1.23 1.09 0.88 0.67 0.44 0.49 0.37 0.30 0.31 0.50 0.53 0.28 0.32 0.51 0.40 0.11 0.04 0.04 0.06 0.10 0.26 0.71 0.82 0.58 0.46 0.30 0.33 0.15 0.06 0.02 0.01 0.00 0.02 0.00 0.01 0.00 0.01 0.01 0.02 0.00 0.00 0.01 0.00 0.01 0.02 0.01 0.00
1.45 1.63 1.55 1.41 1.33 1.15 1.23 1.50 1.70 1.21 0.72 0.47 0.44 0.39 0.34 0.33 0.55 0.71 0.34 0.33 0.49 0.46 0.15 0.05 0.03 0.02 0.02 0.12 0.30 0.78 0.69 0.57 0.43 0.17 0.24 0.13 0.12 0.03 0.02 0.01 0.00 0.00 0.00 0.02 0.05 0.02 0.02 0.05 0.07 0.06 0.04 0.05 0.01 0.00
1.43 1.57 1.53 1.29 1.26 1.11 0.77 0.64 0.87 1.18 0.62 0.46 0.46 0.44 0.35 0.34 0.53 0.73 0.33 0.39 0.52 0.54 0.31 0.05 0.02 0.04 0.04 0.15 0.29 0.51 0.73 0.52 0.46 0.28 0.52 0.53 0.29 0.04 0.03 0.01 0.00 0.00 0.01 0.01 0.04 0.01 0.03 0.06 0.03 0.01 0.08 0.06 0.00 0.00
1.21 1.39 1.36 1.13 0.94 1.05 1.13 0.80 0.48 0.61 0.70 0.50 0.49 0.44 0.34 0.40 0.62 0.54 0.21 0.46 0.43 0.69 0.76 0.14 0.04 0.04 0.02 0.16 0.34 0.51 0.77 0.58 0.53 0.59 0.57 0.45 0.28 0.19 0.12 0.05 0.03 0.02 0.04 0.03 0.08 0.05 0.10 0.15 0.06 0.06 0.05 0.03 0.02 0.00
1.40 1.17 1.31 1.17 1.09 0.82 0.73 0.72 0.71 0.55 0.50 0.49 0.49 0.47 0.42 0.59 1.09 0.75 0.60 0.49 0.49 0.58 1.43 0.49 0.05 0.03 0.02 0.21 0.45 0.53 0.55 0.54 0.63 0.71 0.54 0.32 0.22 0.34 0.57 0.18 0.03 0.00 0.02 0.06 0.11 0.04 0.06 0.08 0.02 0.01 0.03 0.04 0.05 0.07
2.54 1.85 1.45 1.25 1.08 0.93 0.75 0.69 0.89 0.79 0.72 0.72 0.73 0.75 0.73 1.02 0.97 0.80 0.42 0.63 0.72 1.04 1.41 0.60 0.20 0.07 0.06 0.26 0.53 0.66 0.45 0.52 0.79 0.92 0.60 0.27 0.25 0.67 0.97 0.39 0.08 0.00 0.01 0.01 0.01 0.01 0.04 0.04 0.12 0.16 0.23 0.33 0.35 0.32
2.64 2.79 2.70 1.91 1.35 1.21 0.98 0.90 0.98 1.13 1.02 1.17 1.28 1.32 1.48 1.67 1.44 0.71 0.19 0.47 0.91 1.65 1.74 1.18 0.31 0.12 0.16 0.55 0.68 0.65 0.65 0.58 0.77 0.73 0.52 0.31 0.34 0.72 1.05 0.27 0.06 0.03 0.02 0.03 0.06 0.10 0.23 0.29 0.30 0.30 0.24 0.21 0.17 0.10
2.41 2.34 2.94 3.12 2.53 2.04 1.65 1.32 1.26 1.54 1.56 1.79 1.97 1.99 2.07 1.43 0.62 0.36 0.46 0.96 0.98 1.70 2.25 1.28 0.40 0.30 0.23 0.59 0.59 0.73 0.68 0.82 0.62 0.46 0.28 0.46 0.44 0.58 0.31 0.12 0.10 0.08 0.10 0.23 0.29 0.25 0.21 0.16 0.12 0.12 0.14 0.11 0.05 0.03
2.25 2.78 2.81 2.92 3.35 3.02 2.72 2.17 2.03 2.16 2.33 2.66 2.34 1.87 1.53 0.78 0.76 1.05 1.51 2.01 2.68 2.03 1.65 1.06 0.23 0.36 0.30 0.49 0.61 0.90 1.17 1.05 0.92 0.44 0.46 0.86 0.67 0.45 0.33 0.20 0.19 0.25 0.29 0.26 0.18 0.10 0.06 0.08 0.10 0.08 0.04 0.02 0.01 0.01
1.84 2.21 2.90 3.13 3.30 3.71 3.86 3.42 3.28 3.38 3.79 3.00 2.45 1.80 1.56 1.57 1.72 1.97 2.00 1.81 1.42 1.52 0.93 0.47 0.22 0.41 0.36 0.76 0.99 1.01 1.57 1.09 1.02 0.45 0.77 0.82 0.68 0.35 0.18 0.17 0.21 0.21 0.15 0.07 0.04 0.03 0.03 0.03 0.02 0.01 0.01 0.01 0.01 0.00
1.67 1.90 2.31 2.91 3.25 3.54 4.70 5.02 4.90 4.58 3.40 2.00 1.77 2.24 2.44 2.39 2.38 1.92 1.49 1.00 1.11 0.68 0.58 0.53 0.37 0.36 0.38 0.55 1.14 1.64 1.39 1.43 0.91 0.56 1.06 0.71 0.45 0.23 0.16 0.20 0.18 0.08 0.04 0.03 0.03 0.03 0.02 0.01 0.01 0.00 0.01 0.00 0.00 0.00
1.60 1.79 2.12 2.38 2.90 3.60 4.65 6.44 6.86 5.59 3.57 3.13 4.27 4.40 3.11 2.56 1.88 1.28 0.78 0.87 0.82 0.58 0.64 0.68 0.62 0.52 0.73 1.03 1.66 1.83 1.72 1.08 0.60 0.85 0.66 0.37 0.28 0.19 0.11 0.08 0.06 0.08 0.04 0.03 0.03 0.02 0.02 0.02 0.03 0.04 0.04 0.02 0.01 0.01
1.48 1.70 2.11 2.19 2.53 3.60 4.85 6.01 7.57 6.71 4.83 5.73 5.59 4.53 2.15 1.46 0.47 0.55 0.43 0.41 0.47 0.58 0.65 0.72 0.87 0.88 0.96 1.58 1.63 1.51 1.25 1.16 1.04 0.62 0.44 0.35 0.19 0.13 0.14 0.14 0.11 0.16 0.27 0.26 0.17 0.10 0.08 0.07 0.08 0.08 0.08 0.07 0.04 0.03
1.56 1.82 2.13 2.30 2.47 3.17 4.18 5.34 6.05 5.12 5.74 5.96 4.37 2.27 0.83 0.17 0.13 0.35 0.28 0.25 0.33 0.40 0.47 0.69 0.87 0.87 1.05 1.45 1.09 0.95 1.10 0.76 0.42 0.35 0.42 0.25 0.18 0.16 0.19 0.22 0.23 0.24 0.35 0.47 0.50 0.46 0.43 0.36 0.33 0.26 0.16 0.12 0.12 0.07
2.37 3.17 2.73 2.21 2.48 3.17 3.97 5.76 6.84 6.73 7.73 5.47 3.50 1.25 0.27 0.08 0.08 0.15 0.21 0.28 0.37 0.50 0.60 0.80 1.00 1.28 1.17 1.02 1.04 0.72 0.66 0.41 0.35 0.40 0.40 0.30 0.31 0.31 0.29 0.22 0.18 0.14 0.11 0.12 0.12 0.14 0.16 0.17 0.22 0.24 0.22 0.19 0.21 0.20
3.78 3.71 2.28 1.97 2.61 3.45 4.78 6.92 8.79 9.63 7.67 5.18 1.83 0.27 0.04 0.03 0.07 0.13 0.21 0.25 0.27 0.51 0.71 1.04 1.48 1.02 1.09 1.27 0.80 0.60 0.64 0.46 0.25 0.14 0.24 0.25 0.33 0.38 0.41 0.30 0.27 0.20 0.14 0.09 0.07 0.07 0.06 0.06 0.07 0.07 0.07 0.08 0.12 0.23
3.67 2.59 2.04 2.37 3.36 4.83 6.03 7.03 7.56 7.02 5.44 2.46 0.50 0.10 0.03 0.03 0.04 0.06 0.12 0.16 0.28 0.40 0.53 0.90 1.01 1.32 1.09 0.87 0.68 0.52 0.35 0.17 0.10 0.09 0.16 0.20 0.32 0.42 0.35 0.23 0.20 0.16 0.14 0.17 0.19 0.16 0.14 0.12 0.10 0.06 0.05 0.06 0.07 0.06
2.68 2.12 2.10 2.87 3.96 5.58 6.75 6.75 5.24 4.21 2.10 0.64 0.14 0.10 0.07 0.03 0.03 0.03 0.06 0.13 0.22 0.37 0.90 1.41 1.65 1.07 0.30 0.27 0.16 0.09 0.06 0.04 0.03 0.04 0.11 0.19 0.32 0.40 0.38 0.29 0.18 0.14 0.15 0.18 0.18 0.19 0.19 0.16 0.13 0.10 0.11 0.12 0.14 0.11
3.09 2.81 2.59 3.27 3.84 5.47 6.05 5.57 3.98 2.15 1.03 0.47 0.21 0.17 0.18 0.16 0.13 0.11 0.11 0.24 0.61 1.24 1.87 1.59 0.56 0.08 0.02 0.04 0.02 0.01 0.01 0.01 0.00 0.01 0.05 0.12 0.16 0.22 0.26 0.24 0.19 0.17 0.18 0.21 0.22 0.24 0.22 0.20 0.19 0.17 0.18 0.19 0.20 0.16
4.05 3.61 4.08 5.37 6.26 5.83 5.17 3.52 2.46 1.51 0.81 0.51 0.52 0.31 0.42 0.44 0.43 0.48 0.62 0.80 1.65 2.04 1.03 0.24 0.03 0.01 0.01 0.03 0.03 0.02 0.00 0.01 0.02 0.02 0.03 0.03 0.05 0.12 0.19 0.21 0.22 0.26 0.28 0.28 0.28 0.25 0.27 0.25 0.19 0.19 0.25 0.26 0.22 0.23
5.01 4.51 6.31 6.20 6.86 6.57 5.10 2.78 1.60 1.05 0.66 0.75 0.68 0.59 0.70 0.71 0.72 0.78 0.93 1.60 1.55 0.73 0.17 0.04 0.03 0.04 0.04 0.03 0.02 0.02 0.01 0.01 0.01 0.01 0.01 0.02 0.04 0.06 0.07 0.09 0.15 0.26 0.31 0.33 0.33 0.34 0.31 0.29 0.31 0.33 0.33 0.30 0.25 0.21
4.45 3.93 5.12 5.20 4.89 4.38 3.51 1.95 1.48 1.19 0.99 1.02 0.86 0.83 0.92 0.78 0.82 0.94 1.31 0.97 0.51 0.24 0.14 0.12 0.11 0.10 0.07 0.03 0.03 0.02 0.02 0.02 0.03 0.03 0.02 0.02 0.03 0.04 0.06 0.08 0.08 0.13 0.22 0.26 0.26 0.35 0.37 0.32 0.35 0.36 0.30 0.23 0.17 0.18
4.21 5.36 5.35 4.94 3.68 2.78 2.20 1.76 1.22 0.83 0.91 0.85 0.92 0.85 0.73 0.73 0.95 1.13 0.77 0.30 0.31 0.36 0.25 0.25 0.24 0.18 0.13 0.11 0.08 0.08 0.09 0.09 0.09 0.08 0.09 0.12 0.12 0.09 0.07 0.08 0.11 0.15 0.16 0.24 0.31 0.35 0.26 0.23 0.25 0.23 0.20 0.23 0.21 0.21
6.22 5.91 4.16 3.54 2.46 1.38 0.89 0.72 0.59 0.53 0.63 0.54 0.62 0.68 0.63 0.73 0.98 0.81 0.34 0.22 0.34 0.47 0.42 0.31 0.28 0.26 0.23 0.20 0.18 0.16 0.14 0.19 0.23 0.27 0.20 0.17 0.17 0.24 0.23 0.15 0.10 0.10 0.10 0.27 0.28 0.22 0.20 0.24 0.28 0.24 0.24 0.28 0.39 0.46
4.97 2.81 2.10 1.21 0.70 0.30 0.27 0.34 0.36 0.37 0.45 0.58 0.62 0.55 0.58 0.70 0.77 0.53 0.18 0.22 0.35 0.45 0.48 0.38 0.33 0.29 0.28 0.28 0.27 0.30 0.30 0.33 0.43 0.47 0.30 0.23 0.26 0.43 0.43 0.32 0.22 0.13 0.07 0.18 0.36 0.43 0.37 0.31 0.35 0.34 0.37 0.34 0.45 0.60
2.75 1.44 0.81 0.27 0.13 0.10 0.17 0.25 0.28 0.37 0.51 0.50 0.46 0.43 0.56 0.86 0.52 0.16 0.15 0.27 0.43 0.50 0.52 0.53 0.45 0.40 0.36 0.35 0.36 0.42 0.45 0.50 0.58 0.54 0.40 0.37 0.32 0.31 0.42 0.52 0.43 0.24 0.31 0.40 0.39 0.44 0.55 0.47 0.41 0.38 0.40 0.36 0.39 0.52
0.89 0.33 0.37 0.31 0.21 0.15 0.20 0.31 0.39 0.35 0.26 0.17 0.19 0.26 0.32 0.23 0.11 0.14 0.23 0.35 0.48 0.56 0.60 0.59 0.54 0.49 0.47 0.48 0.51 0.56 0.59 0.59 0.57 0.56 0.54 0.52 0.47 0.39 0.38 0.42 0.48 0.57 0.64 0.59 0.62 0.65 0.61 0.56 0.53 0.50 0.50 0.48 0.39 0.38
0.37 0.25 0.16 0.22 0.24 0.30 0.32 0.29 0.23 0.16 0.10 0.08 0.13 0.16 0.16 0.13 0.22 0.31 0.38 0.42 0.53 0.59 0.60 0.58 0.58 0.52 0.52 0.55 0.56 0.60 0.64 0.68 0.68 0.62 0.45 0.37 0.37 0.42 0.45 0.50 0.57 0.60 0.59 0.57 0.50 0.52 0.62 0.76 0.88 0.93 0.83 0.70 0.57 0.55
0.34 0.26 0.27 0.26 0.22 0.19 0.14 0.14 0.15 0.15 0.12 0.12 0.17 0.21 0.21 0.30 0.39 0.44 0.46 0.51 0.52 0.49 0.54 0.57 0.55 0.51 0.50 0.49 0.54 0.55 0.58 0.61 0.71 0.85 0.89 0.64 0.49 0.52 0.57 0.60 0.62 0.61 0.61 0.61 0.61 0.62 0.64 0.71 0.72 0.71 0.73 0.74 0.74 0.73
0.30 0.29 0.32 0.26 0.24 0.21 0.25 0.31 0.36 0.32 0.30 0.31 0.30 0.29 0.30 0.35 0.47 0.49 0.45 0.47 0.46 0.46 0.52 0.61 0.60 0.58 0.57 0.59 0.60 0.62 0.57 0.51 0.53 0.62 0.73 0.81 0.78 0.73 0.71 0.73 0.74 0.77 0.76 0.73 0.69 0.67 0.65 0.62 0.59 0.60 0.62 0.62 0.59 0.61
0.40 0.43 0.33 0.32 0.33 0.37 0.44 0.43 0.41 0.41 0.46 0.45 0.42 0.40 0.43 0.48 0.57 0.52 0.40 0.43 0.45 0.48 0.53 0.54 0.56 0.57 0.58 0.60 0.61 0.65 0.71 0.69 0.68 0.76 0.87 0.90 0.88 0.79 0.85 0.85 0.81 0.84 0.85 0.85 0.85 0.85 0.81 0.82 0.80 0.79 0.75 0.68 0.65 0.60
0.57 0.58 0.54 0.50 0.46 0.45 0.41 0.43 0.44 0.43 0.39 0.37 0.40 0.39 0.39 0.39 0.39 0.33 0.33 0.41 0.45 0.51 0.52 0.53 0.56 0.56 0.57 0.57 0.57 0.57 0.60 0.67 0.74 0.84 0.90 0.93 0.94 0.99 1.02 0.89 0.83 0.88 0.91 0.93 0.95 0.97 0.95 0.93 0.86 0.81 0.78 0.75 0.69 0.64

GFSWCAN_prec_precacc_213.txt.gz
Total_Precipitation_Accumulation
1.73 1.52 1.52 1.60 1.38 1.13 0.97 1.18 1.43 1.23 1.05 0.61 0.62 0.43 0.29 0.26 0.41 0.36 0.31 0.51 0.49 0.31 0.07 0.03 0.06 0.13 0.14 0.43 1.05 0.83 0.57 0.48 0.48 0.54 0.30 0.07 0.01 0.01 0.01 0.00 0.00 0.05 0.10 0.12 0.11 0.13 0.02 0.00 0.01 0.04 0.04 0.00 0.00 0.00
1.69 1.64 1.51 1.67 1.68 1.67 1.56 1.24 1.10 0.90 0.68 0.44 0.50 0.37 0.30 0.31 0.50 0.53 0.28 0.32 0.51 0.41 0.12 0.04 0.04 0.06 0.10 0.26 0.71 0.82 0.58 0.46 0.30 0.33 0.15 0.06 0.02 0.01 0.00 0.02 0.00 0.01 0.00 0.01 0.01 0.02 0.00 0.00 0.01 0.00 0.02 0.04 0.05 0.04
1.45 1.63 1.56 1.42 1.34 1.17 1.24 1.51 1.71 1.22 0.73 0.48 0.45 0.40 0.35 0.34 0.55 0.72 0.34 0.33 0.49 0.46 0.15 0.05 0.03 0.02 0.02 0.12 0.30 0.79 0.71 0.57 0.44 0.18 0.29 0.21 0.19 0.05 0.03 0.01 0.00 0.00 0.00 0.03 0.05 0.03 0.03 0.07 0.11 0.15 0.13 0.12 0.05 0.01
1.43 1.58 1.54 1.30 1.27 1.12 0.78 0.65 0.89 1.20 0.64 0.48 0.49 0.47 0.37 0.36 0.54 0.74 0.33 0.39 0.53 0.55 0.31 0.05 0.02 0.04 0.04 0.15 0.30 0.57 0.86 0.63 0.59 0.45 0.81 0.82 0.47 0.11 0.08 0.02 0.01 0.01 0.03 0.06 0.14 0.12 0.18 0.21 0.12 0.05 0.08 0.06 0.00 0.00
1.22 1.41 1.39 1.14 0.95 1.06 1.15 0.81 0.49 0.63 0.74 0.54 0.53 0.48 0.38 0.43 0.63 0.55 0.21 0.46 0.43 0.70 0.77 0.14 0.04 0.04 0.02 0.16 0.34 0.54 0.90 0.79 0.80 0.90 0.91 0.69 0.42 0.30 0.27 0.16 0.09 0.05 0.07 0.10 0.16 0.08 0.12 0.21 0.09 0.07 0.05 0.03 0.02 0.00
1.43 1.19 1.32 1.18 1.09 0.83 0.74 0.73 0.73 0.58 0.54 0.52 0.51 0.48 0.43 0.60 1.09 0.75 0.60 0.52 0.53 0.62 1.48 0.50 0.05 0.03 0.02 0.21 0.45 0.54 0.59 0.71 0.96 1.07 0.84 0.58 0.44 0.54 0.80 0.31 0.12 0.05 0.06 0.09 0.17 0.12 0.15 0.19 0.05 0.01 0.03 0.04 0.05 0.07
2.57 1.87 1.46 1.25 1.08 0.93 0.76 0.72 0.92 0.82 0.74 0.74 0.75 0.76 0.75 1.04 0.98 0.81 0.42 0.65 0.76 1.08 1.42 0.60 0.20 0.07 0.06 0.28 0.56 0.66 0.46 0.59 0.99 1.20 0.87 0.47 0.38 0.82 1.22 0.56 0.21 0.11 0.10 0.10 0.07 0.04 0.06 0.05 0.12 0.16 0.23 0.33 0.35 0.32
2.68 2.82 2.73 1.93 1.36 1.24 1.01 0.92 0.99 1.15 1.04 1.18 1.29 1.33 1.48 1.67 1.44 0.71 0.23 0.50 0.92 1.69 1.76 1.19 0.31 0.12 0.16 0.61 0.83 0.77 0.75 0.63 0.82 0.82 0.63 0.44 0.52 0.96 1.33 0.52 0.22 0.17 0.10 0.06 0.07 0.10 0.23 0.29 0.30 0.30 0.24 0.21 0.17 0.10
2.46 2.38 2.98 3.15 2.55 2.07 1.69 1.33 1.27 1.55 1.56 1.79 1.97 1.99 2.07 1.44 0.62 0.37 0.47 0.97 0.98 1.73 2.29 1.30 0.40 0.31 0.24 0.60 0.60 0.74 0.69 0.83 0.63 0.50 0.37 0.56 0.58 0.75 0.56 0.30 0.21 0.15 0.12 0.24 0.29 0.25 0.21 0.16 0.12 0.12 0.14 0.11 0.05 0.03
2.31 2.83 2.85 2.94 3.36 3.05 2.75 2.19 2.04 2.16 2.33 2.66 2.34 1.87 1.54 0.79 0.76 1.05 1.52 2.01 2.68 2.03 1.67 1.13 0.27 0.39 0.31 0.50 0.62 0.91 1.18 1.06 0.94 0.45 0.49 0.92 0.80 0.63 0.47 0.28 0.23 0.27 0.30 0.27 0.18 0.10 0.06 0.08 0.10 0.08 0.04 0.02 0.01 0.01
1.91 2.29 2.94 3.15 3.31 3.73 3.90 3.47 3.29 3.39 3.79 3.00 2.45 1.80 1.56 1.57 1.72 1.97 2.00 1.81 1.48 1.60 0.97 0.49 0.23 0.43 0.39 0.78 1.01 1.03 1.57 1.10 1.04 0.49 0.81 0.94 0.82 0.49 0.27 0.20 0.22 0.22 0.15 0.07 0.04 0.03 0.03 0.03 0.02 0.01 0.01 0.01 0.01 0.00
1.77 1.99 2.36 2.93 3.25 3.55 4.74 5.04 4.93 4.59 3.40 2.00 1.77 2.24 2.44 2.39 2.38 1.92 1.49 1.01 1.16 0.77 0.61 0.53 0.37 0.37 0.41 0.57 1.16 1.67 1.41 1.45 0.95 0.61 1.11 0.77 0.54 0.27 0.16 0.20 0.18 0.08 0.04 0.03 0.03 0.03 0.02 0.01 0.01 0.00 0.01 0.00 0.00 0.00
1.66 1.88 2.20 2.42 2.92 3.64 4.69 6.46 6.88 5.64 3.57 3.13 4.27 4.40 3.11 2.56 1.88 1.28 0.78 0.89 0.85 0.60 0.64 0.68 0.62 0.52 0.73 1.03 1.66 1.83 1.72 1.08 0.61 0.87 0.69 0.42 0.29 0.19 0.11 0.08 0.06 0.08 0.04 0.03 0.03 0.02 0.02 0.02 0.03 0.04 0.04 0.02 0.01 0.01
1.52 1.75 2.18 2.28 2.60 3.66 4.89 6.02 7.59 6.72 4.83 5.73 5.59 4.53 2.15 1.46 0.50 0.59 0.46 0.44 0.48 0.58 0.65 0.72 0.87 0.88 0.96 1.58 1.63 1.51 1.25 1.16 1.05 0.65 0.48 0.36 0.19 0.13 0.14 0.14 0.11 0.16 0.27 0.26 0.17 0.10 0.08 0.07 0.08 0.08 0.08 0.07 0.04 0.03
1.63 1.92 2.23 2.34 2.49 3.19 4.18 5.35 6.07 5.12 5.74 5.96 4.37 2.27 0.84 0.20 0.16 0.36 0.28 0.25 0.34 0.40 0.47 0.69 0.87 0.87 1.05 1.45 1.10 0.95 1.10 0.77 0.45 0.39 0.44 0.25 0.18 0.16 0.19 0.22 0.23 0.24 0.35 0.47 0.50 0.46 0.43 0.36 0.33 0.26 0.16 0.12 0.12 0.07
2.45 3.35 2.94 2.24 2.48 3.17 3.97 5.77 6.84 6.73 7.73 5.47 3.50 1.25 0.28 0.09 0.08 0.15 0.21 0.28 0.37 0.50 0.60 0.80 1.00 1.28 1.17 1.03 1.04 0.73 0.66 0.42 0.38 0.41 0.40 0.30 0.31 0.31 0.29 0.22 0.18 0.14 0.11 0.12 0.12 0.14 0.16 0.17 0.22 0.24 0.22 0.19 0.21 0.20
4.14 3.76 2.30 1.99 2.62 3.45 4.78 6.92 8.79 9.63 7.67 5.18 1.84 0.28 0.05 0.06 0.10 0.14 0.21 0.25 0.27 0.51 0.71 1.04 1.48 1.02 1.09 1.27 0.81 0.61 0.66 0.48 0.25 0.14 0.24 0.25 0.33 0.38 0.41 0.30 0.27 0.20 0.14 0.09 0.07 0.07 0.06 0.06 0.07 0.07 0.07 0.08 0.12 0.23
3.74 2.62 2.12 2.40 3.36 4.83 6.03 7.03 7.56 7.02 5.44 2.47 0.50 0.10 0.04 0.04 0.05 0.06 0.12 0.16 0.28 0.41 0.54 0.90 1.01 1.32 1.09 0.87 0.70 0.54 0.35 0.17 0.10 0.09 0.16 0.20 0.32 0.42 0.35 0.23 0.20 0.16 0.14 0.17 0.19 0.16 0.14 0.12 0.10 0.06 0.06 0.06 0.07 0.06
2.68 2.13 2.17 2.88 3.96 5.58 6.75 6.75 5.24 4.21 2.10 0.65 0.15 0.10 0.08 0.04 0.05 0.04 0.07 0.13 0.22 0.37 0.90 1.41 1.65 1.08 0.32 0.29 0.18 0.10 0.07 0.05 0.03 0.04 0.11 0.19 0.32 0.40 0.38 0.29 0.18 0.14 0.15 0.18 0.18 0.19 0.19 0.16 0.13 0.10 0.11 0.13 0.15 0.12
3.14 2.85 2.60 3.27 3.84 5.47 6.05 5.57 3.98 2.15 1.03 0.47 0.22 0.18 0.18 0.17 0.14 0.11 0.12 0.24 0.62 1.24 1.87 1.60 0.59 0.11 0.06 0.06 0.03 0.02 0.02 0.01 0.00 0.01 0.05 0.12 0.16 0.22 0.26 0.24 0.19 0.17 0.18 0.21 0.22 0.24 0.22 0.21 0.19 0.17 0.18 0.21 0.22 0.17
4.07 3.63 4.08 5.37 6.26 5.83 5.17 3.52 2.46 1.51 0.81 0.52 0.52 0.31 0.42 0.44 0.43 0.48 0.63 0.80 1.65 2.05 1.06 0.29 0.09 0.05 0.03 0.04 0.05 0.02 0.00 0.01 0.02 0.03 0.04 0.04 0.05 0.12 0.19 0.21 0.22 0.26 0.28 0.29 0.28 0.25 0.27 0.26 0.19 0.20 0.26 0.26 0.22 0.24
5.02 4.51 6.31 6.20 6.86 6.57 5.11 2.78 1.61 1.05 0.66 0.76 0.68 0.59 0.71 0.72 0.72 0.78 0.93 1.60 1.56 0.77 0.23 0.10 0.07 0.06 0.05 0.04 0.02 0.02 0.01 0.01 0.01 0.01 0.01 0.02 0.04 0.06 0.07 0.09 0.15 0.26 0.31 0.33 0.34 0.35 0.31 0.30 0.31 0.34 0.33 0.31 0.26 0.21
4.45 3.93 5.12 5.20 4.89 4.38 3.52 1.95 1.48 1.19 0.99 1.02 0.86 0.83 0.92 0.78 0.82 0.95 1.32 0.99 0.55 0.30 0.19 0.16 0.14 0.11 0.08 0.04 0.03 0.02 0.02 0.02 0.03 0.03 0.02 0.02 0.03 0.04 0.06 0.08 0.08 0.13 0.22 0.26 0.26 0.35 0.38 0.33 0.35 0.37 0.31 0.23 0.18 0.19
4.21 5.36 5.35 4.94 3.68 2.78 2.20 1.76 1.22 0.84 0.91 0.85 0.92 0.85 0.73 0.73 0.95 1.13 0.77 0.31 0.35 0.39 0.27 0.26 0.24 0.18 0.13 0.11 0.08 0.08 0.09 0.09 0.09 0.08 0.09 0.12 0.12 0.09 0.07 0.08 0.11 0.15 0.16 0.24 0.31 0.35 0.26 0.24 0.26 0.24 0.21 0.24 0.21 0.22
6.22 5.91 4.16 3.54 2.46 1.38 0.89 0.72 0.59 0.53 0.63 0.54 0.62 0.68 0.63 0.73 0.98 0.81 0.35 0.24 0.37 0.48 0.42 0.31 0.28 0.26 0.23 0.20 0.18 0.16 0.14 0.19 0.24 0.28 0.20 0.17 0.17 0.24 0.23 0.15 0.10 0.10 0.10 0.27 0.29 0.22 0.20 0.24 0.29 0.25 0.26 0.31 0.42 0.49
4.97 2.81 2.11 1.22 0.70 0.30 0.27 0.34 0.36 0.37 0.45 0.58 0.62 0.55 0.59 0.70 0.77 0.54 0.20 0.26 0.38 0.46 0.48 0.39 0.34 0.30 0.28 0.28 0.28 0.30 0.30 0.33 0.43 0.48 0.30 0.23 0.26 0.44 0.44 0.32 0.22 0.13 0.07 0.18 0.37 0.45 0.38 0.31 0.36 0.36 0.38 0.36 0.48 0.63
2.75 1.44 0.82 0.28 0.13 0.10 0.17 0.25 0.28 0.37 0.51 0.50 0.46 0.43 0.56 0.86 0.53 0.19 0.19 0.30 0.45 0.51 0.53 0.53 0.46 0.41 0.37 0.35 0.36 0.42 0.45 0.50 0.58 0.54 0.40 0.37 0.32 0.31 0.45 0.57 0.48 0.26 0.33 0.43 0.42 0.47 0.58 0.49 0.43 0.39 0.42 0.38 0.42 0.56
0.90 0.34 0.38 0.31 0.22 0.15 0.20 0.32 0.39 0.36 0.27 0.18 0.20 0.26 0.33 0.25 0.14 0.17 0.26 0.37 0.48 0.56 0.60 0.59 0.54 0.49 0.47 0.48 0.51 0.56 0.59 0.59 0.57 0.56 0.54 0.52 0.47 0.39 0.38 0.44 0.52 0.61 0.70 0.65 0.69 0.72 0.66 0.61 0.57 0.54 0.53 0.51 0.41 0.42
0.37 0.25 0.17 0.23 0.25 0.31 0.34 0.31 0.26 0.19 0.13 0.12 0.16 0.19 0.20 0.16 0.26 0.34 0.40 0.42 0.53 0.59 0.60 0.58 0.58 0.52 0.52 0.55 0.56 0.60 0.64 0.68 0.68 0.63 0.45 0.37 0.37 0.42 0.45 0.50 0.57 0.61 0.61 0.59 0.52 0.57 0.68 0.83 0.93 0.97 0.87 0.74 0.61 0.59
0.34 0.27 0.27 0.27 0.24 0.23 0.18 0.18 0.18 0.18 0.15 0.17 0.22 0.24 0.25 0.33 0.43 0.46 0.47 0.52 0.52 0.49 0.54 0.57 0.55 0.51 0.51 0.49 0.54 0.55 0.58 0.61 0.72 0.88 0.92 0.65 0.50 0.52 0.58 0.62 0.65 0.63 0.63 0.62 0.62 0.63 0.65 0.72 0.74 0.72 0.75 0.76 0.77 0.76
0.31 0.30 0.33 0.28 0.27 0.25 0.28 0.33 0.38 0.33 0.32 0.33 0.33 0.31 0.32 0.37 0.49 0.50 0.45 0.47 0.46 0.46 0.52 0.61 0.60 0.58 0.57 0.60 0.61 0.63 0.58 0.51 0.54 0.63 0.74 0.83 0.80 0.75 0.73 0.78 0.77 0.79 0.78 0.75 0.71 0.68 0.67 0.63 0.60 0.62 0.64 0.64 0.62 0.63
0.41 0.44 0.34 0.32 0.33 0.38 0.45 0.44 0.43 0.42 0.47 0.46 0.43 0.41 0.45 0.49 0.58 0.52 0.41 0.43 0.45 0.48 0.53 0.55 0.56 0.57 0.58 0.60 0.61 0.66 0.74 0.70 0.69 0.78 0.89 0.92 0.90 0.81 0.89 0.86 0.82 0.86 0.87 0.86 0.86 0.87 0.82 0.84 0.82 0.81 0.77 0.71 0.68 0.63
0.58 0.58 0.54 0.50 0.46 0.45 0.41 0.44 0.45 0.44 0.39 0.38 0.41 0.40 0.40 0.39 0.40 0.33 0.33 0.41 0.45 0.51 0.52 0.53 0.56 0.56 0.57 0.57 0.57 0.57 0.60 0.67 0.74 0.85 0.91 0.94 0.95 1.00 1.03 0.89 0.84 0.89 0.93 0.94 0.96 0.98 0.97 0.95 0.88 0.83 0.81 0.78 0.72 0.67